Content
SEND FEEDBACK

Daily
Averages
Monthly
Summary
United States of America

POTTS JUNCTION, GUAM


Home > North America > United States > Guam
Elevation: 360 feet     Latitude: 13 33N     Longitude: 144 50E

WEATHER
 
SELECT A DAY
Number of Records: 209,106;   Date Range: 1/1/95 - 8/12/14
 
SHARE

PRINT THIS DATA

[ ← Previous Day ]
WEATHER ALMANAC - MARCH 3, 2013
[ Next Day → ]
[ °C ]   °F
Weather ElementAverageHighLow
Temperature81.2 °F87.1 °F (11:54 am)77 °F (4:54 am)
Dewpoint75.4 °F76.5 °F (3:54 pm)73.9 °F (8:54 am)
Humidity83.1 %94 % (4:54 am)68 % (1:54 pm)
Barometer29.83 in29.87 in (11:14 pm)29.77 in (3:54 pm)
Wind Speed9.3 mph15 mph (1:54 pm)
Wind Gust19.6 mph (11:54 am)
Weather ElementAverage
Visibility10 mi
Wind DirectionENE (83.3 °)

Weather ElementTotal
Precipitation---
Cooling Degree Days17.1 (Base 65)
Growing Degree Days32.1 (Base 50)
Averaged from 27 records on March 3, 2013
WEATHER CONDITIONS BREAKOUT
WIND DIRECTION BREAKOUT
WEATHER BY HOUR - MARCH 3, 2013
[ °C ]   °F
Local TimeTemperatureDewpointHumidityBarometerVisibilityWind DirectionWind SpeedGust SpeedPrecipitationEventsConditions
1:54 AM78.1 °F75.9 °F93 %29.83 in10.0 miENE (60°)6.9 mphOvercast
2:54 AM80.2 °F76.1 °F87 %29.81 in10.0 miNE (50°)4.6 mphOvercast
3:54 AM79.7 °F75.9 °F88 %29.81 in10.0 miENE (70°)5.8 mphScattered Clouds
4:54 AM77.0 °F75.0 °F94 %29.80 in10.0 miEast (80°)6.9 mphPartly Cloudy
5:54 AM79.2 °F75.9 °F90 %29.81 in10.0 miEast (100°)8.1 mphOvercast
6:54 AM79.3 °F75.4 °F88 %29.83 in10.0 miEast (90°)8.1 mphOvercast
7:54 AM78.1 °F75.0 °F90 %29.85 in10.0 miEast (90°)8.1 mphScattered Clouds
8:54 AM80.1 °F73.9 °F81 %29.86 in10.0 miEast (80°)10.4 mphMostly Cloudy
9:54 AM85.3 °F75.6 °F73 %29.86 in10.0 miEast (100°)10.4 mphPartly Cloudy
10:54 AM86.7 °F75.4 °F69 %29.85 in10.0 miEast (80°)11.5 mphScattered Clouds
11:54 AM87.1 °F75.7 °F69 %29.84 in10.0 miEast (90°)13.8 mph19.6 mphScattered Clouds
12:54 PM85.5 °F75.0 °F71 %29.81 in10.0 miEast (80°)13.8 mphScattered Clouds
1:54 PM87.1 °F75.6 °F68 %29.78 in10.0 miEast (80°)15.0 mphPartly Cloudy
2:54 PM86.0 °F75.7 °F71 %29.78 in10.0 miEast (90°)12.7 mphPartly Cloudy
3:54 PM86.4 °F76.5 °F72 %29.77 in10.0 miEast (90°)13.8 mphScattered Clouds
4:54 PM84.0 °F75.6 °F76 %29.79 in10.0 miENE (70°)12.7 mphMostly Cloudy
5:03 PM82.4 °F75.2 °F79 %29.81 in10.0 miEast (90°)12.7 mphScattered Clouds
5:54 PM83.1 °F75.6 °F78 %29.80 in10.0 miEast (90°)10.4 mphClear
6:54 PM80.4 °F75.2 °F84 %29.81 in10.0 miEast (80°)8.1 mphPartly Cloudy
7:54 PM79.7 °F75.2 °F86 %29.83 in10.0 miEast (80°)6.9 mphPartly Cloudy
8:54 PM77.0 °F75.0 °F94 %29.84 in10.0 miEast (80°)6.9 mphPartly Cloudy
9:54 PM79.7 °F74.8 °F85 %29.85 in10.0 miEast (80°)6.9 mphPartly Cloudy
10:54 PM79.5 °F75.4 °F87 %29.85 in10.0 miEast (90°)8.1 mphScattered Clouds
11:14 PM77.0 °F75.2 °F94 %29.87 in10.0 miEast (90°)5.8 mphMostly Cloudy
11:24 PM77.0 °F75.2 °F94 %29.87 in10.0 miEast (90°)5.8 mphScattered Clouds
11:43 PM77.0 °F75.2 °F94 %29.87 in10.0 miEast (90°)8.1 mphMostly Cloudy
11:54 PM79.9 °F75.9 °F88 %29.85 in10.0 miEast (90°)8.1 mphScattered Clouds
Hourly data recorded from PGUM, located miles away from Potts Junction, Guam







STORIES FROM OUR PARTNERS